ECMWFFLT2_700_rhum_000.txt.gz
RH
22 23 23 22 22 22 21 21 21 20 20 19 18 17 18 18 18 17 17 16 16 17 18 19 19 19 19 19 19 19 20 21 23 25 27 29 32 35 36 37 36 35 34 33 33 33 32 31 29 27 25 24
26 26 26 25 25 24 23 23 22 22 21 19 18 16 16 16 17 17 17 17 16 16 16 17 18 18 18 18 18 18 18 18 20 22 25 28 31 33 36 37 37 37 37 36 35 33 32 30 28 26 25 24
29 29 29 28 27 26 25 25 23 22 21 19 17 15 15 15 16 16 17 17 17 16 15 15 16 16 17 17 17 17 17 17 19 21 23 27 30 33 35 36 36 36 35 35 32 30 29 26 25 24 24 24
32 32 32 31 30 28 26 25 23 21 19 16 15 14 14 15 16 16 16 17 17 17 16 16 15 15 16 16 16 16 16 16 19 22 25 28 31 33 35 36 34 33 31 30 29 27 26 24 23 23 23 22
34 35 35 33 31 28 26 24 21 19 17 15 15 15 15 16 17 17 16 16 17 17 17 16 15 15 15 15 16 16 16 18 22 25 28 31 33 35 36 35 32 30 28 27 26 26 25 24 23 22 22 21
37 37 36 33 30 27 24 22 20 19 18 17 16 17 17 18 18 18 17 16 17 17 17 16 15 15 15 16 16 17 19 21 25 29 32 33 35 37 38 35 31 30 28 27 26 26 25 24 23 22 21 20
38 38 36 31 28 25 23 20 20 20 19 19 20 20 20 20 20 20 19 17 17 17 16 16 15 15 15 17 18 20 22 25 29 32 34 35 37 38 37 34 31 30 28 27 25 24 23 22 21 21 20 20
40 40 36 29 27 25 23 21 22 22 21 22 23 22 22 22 23 22 21 19 18 17 17 16 16 16 16 18 21 24 26 29 33 35 36 36 36 36 35 34 32 31 29 26 24 23 22 20 19 19 19 18
41 40 33 28 28 27 25 25 25 24 24 26 26 25 25 25 26 26 25 23 21 20 19 18 18 18 19 22 25 29 32 34 36 36 36 36 35 34 34 35 34 32 29 26 24 23 21 20 19 18 18 18
41 36 31 31 31 29 28 27 26 26 27 29 29 27 27 27 29 30 29 27 25 24 23 22 22 22 24 26 30 33 37 38 38 38 36 35 34 34 35 36 35 33 29 27 25 23 21 21 21 20 19 18
39 35 34 35 33 31 30 28 27 28 30 31 30 29 29 29 30 32 32 30 29 28 26 26 25 25 28 30 33 36 39 41 41 40 37 35 34 34 36 37 36 33 30 29 26 24 23 22 22 21 21 19
37 36 37 37 34 33 33 31 30 30 31 31 31 30 29 28 29 30 30 30 31 28 27 29 28 27 29 32 35 38 41 44 44 44 41 38 35 35 36 38 37 34 32 30 27 25 24 23 23 22 21 20
36 37 38 37 35 36 36 34 33 32 30 30 30 28 27 26 26 27 26 28 29 26 27 30 29 29 31 33 36 39 42 44 46 48 47 45 41 37 37 38 38 35 33 31 28 26 25 24 23 23 22 21
37 37 36 35 38 39 37 35 34 31 28 28 26 25 24 24 24 25 25 27 29 26 28 31 31 33 35 36 38 41 42 42 44 48 50 51 50 45 40 39 39 38 35 34 31 28 27 26 25 24 23 22
37 37 34 36 39 40 38 36 32 28 26 25 24 24 23 23 24 25 26 28 30 28 29 31 34 37 38 41 43 43 43 41 41 44 47 50 53 53 48 43 42 41 38 36 33 30 29 27 26 25 24 22
36 36 36 37 35 35 36 34 28 24 24 23 24 24 24 25 27 27 27 28 29 28 28 29 32 35 38 44 46 45 45 43 42 43 44 45 49 53 54 50 46 43 41 39 36 33 30 29 27 26 24 23
34 34 34 32 28 29 31 29 25 23 25 25 25 26 28 31 33 33 33 32 32 30 29 29 30 32 37 44 46 44 45 46 47 49 47 45 45 49 54 55 51 47 45 42 39 35 32 30 28 26 25 23
31 32 33 29 25 25 26 26 25 24 27 27 27 30 34 37 39 40 40 40 40 39 37 36 36 36 41 47 48 45 47 51 55 58 58 53 48 47 53 58 56 53 50 46 41 37 34 31 29 27 25 24
35 38 38 31 25 24 24 26 25 25 28 29 30 35 38 41 43 44 45 47 48 49 48 47 46 47 51 54 54 52 53 57 63 69 70 64 56 51 54 61 61 58 55 49 43 38 34 31 29 27 25 23
45 48 45 35 28 25 26 26 25 27 30 31 34 39 42 44 47 50 54 58 60 60 58 57 55 57 62 63 62 62 62 64 71 80 84 80 71 60 57 62 65 64 60 51 44 38 34 31 29 27 25 22
51 53 49 41 32 28 27 26 27 30 32 34 38 44 48 51 55 59 63 66 68 67 64 63 62 63 65 67 67 67 68 71 78 89 95 93 87 74 63 64 69 70 66 56 47 39 34 31 29 27 24 21
55 55 53 47 37 31 28 28 30 32 34 36 41 47 53 59 63 66 68 69 70 68 65 63 61 62 64 66 67 67 69 74 82 92 98 98 98 88 70 65 71 76 72 63 51 41 35 31 29 26 23 21
56 57 56 48 37 32 30 29 31 32 33 34 37 41 46 54 61 67 70 71 72 70 66 62 58 57 58 61 64 66 68 72 80 91 98 98 99 97 80 67 70 78 78 70 58 45 36 32 30 27 23 19
60 60 56 47 36 31 30 30 30 30 31 30 31 35 38 42 47 55 62 66 71 73 73 69 62 57 55 55 57 59 62 69 79 88 96 99 99 99 89 74 71 76 79 76 66 50 38 33 31 27 21 17
52 54 54 46 35 31 29 30 30 31 31 29 29 33 37 38 40 46 53 61 71 77 81 78 71 65 59 55 55 56 57 64 77 86 94 98 99 99 94 84 76 73 75 78 73 56 41 34 31 27 20 15
38 42 46 40 33 30 31 32 32 31 31 30 31 34 40 43 45 48 52 60 69 79 89 87 81 76 70 64 59 57 57 59 67 79 90 97 99 100 97 91 84 77 74 77 78 65 48 35 30 27 21 14
38 39 38 33 32 32 33 34 34 33 32 34 38 43 48 50 51 52 54 59 66 76 88 88 85 85 82 77 68 61 60 59 62 72 85 94 99 100 99 95 89 84 81 79 80 75 57 40 30 27 21 14
39 37 34 33 34 35 35 35 35 34 35 40 48 50 50 51 52 53 53 56 60 67 77 79 80 85 88 87 79 67 63 63 62 69 81 93 99 100 100 98 91 89 89 84 83 82 66 46 33 28 21 14
36 34 33 35 35 35 35 34 34 34 35 40 46 48 49 50 51 52 52 53 54 59 70 78 83 88 89 89 80 64 59 63 66 70 79 91 97 98 100 100 95 91 92 91 89 87 73 51 37 31 26 19
37 35 35 35 36 37 36 35 35 34 33 34 37 42 47 50 52 53 53 51 49 53 63 74 81 83 81 81 75 62 56 60 68 72 78 89 97 98 100 101 97 93 94 97 96 92 81 60 42 34 31 26
40 39 40 39 38 39 38 37 36 36 35 33 32 36 43 50 54 53 51 50 50 53 59 66 73 76 73 73 74 71 62 59 69 78 82 91 98 99 100 101 99 97 98 100 99 96 88 69 49 38 35 31

ECMWFFLT2_700_rhum_006.txt.gz
RH
24 26 29 28 25 22 22 21 21 20 19 19 19 19 19 19 19 19 18 18 17 16 16 16 17 17 18 20 21 22 22 22 22 21 21 21 21 21 20 20 20 20 21 21 22 26 30 31 32 32 31 31
25 28 31 31 28 25 25 24 23 23 23 22 21 20 20 20 20 20 19 18 17 16 15 16 16 17 17 17 18 20 21 21 21 20 20 20 19 19 20 19 19 19 19 20 21 24 27 30 32 33 33 33
25 29 33 34 32 30 29 28 28 27 26 25 24 23 22 22 21 20 19 17 16 15 15 15 16 17 17 17 17 17 18 19 20 20 20 19 19 19 19 18 18 18 19 20 21 23 26 28 31 32 33 33
26 30 34 35 35 34 33 33 32 30 29 29 28 26 24 21 19 18 17 16 15 15 15 15 16 17 18 18 18 17 17 17 18 18 19 19 18 18 18 18 17 17 18 19 21 23 25 27 29 31 32 33
28 32 35 37 37 37 36 36 36 33 32 31 29 27 23 19 17 16 15 15 15 15 16 16 17 17 18 19 19 19 18 17 17 17 17 18 18 18 17 17 17 16 17 19 21 23 25 26 28 29 31 31
30 34 37 38 39 39 39 38 37 35 34 32 29 26 22 19 17 16 15 15 15 16 17 18 19 18 18 19 20 21 20 19 18 18 17 17 17 17 17 16 16 16 17 19 22 25 26 28 29 29 30 29
32 35 37 39 41 41 41 41 38 37 36 33 30 27 25 22 20 18 17 17 18 18 20 21 21 21 20 20 21 22 22 22 21 20 19 18 17 17 17 17 17 17 19 22 26 28 30 31 31 31 30 28
36 37 39 40 41 42 43 42 39 39 38 33 31 31 30 26 24 23 21 20 21 22 22 24 25 24 22 22 21 22 22 21 21 21 20 19 19 20 20 21 22 23 25 28 30 32 33 33 33 32 30 27
41 42 42 42 41 42 43 42 41 40 37 34 32 34 33 30 29 29 26 24 25 27 27 28 29 28 26 25 24 23 22 22 21 21 21 21 22 23 25 27 29 30 31 33 34 35 35 34 33 32 29 27
44 45 45 43 41 42 42 42 41 39 37 35 35 36 35 34 34 34 31 29 30 32 33 33 35 34 31 30 29 27 26 25 23 22 23 24 26 27 29 31 33 35 36 36 36 36 35 33 31 29 29 28
48 48 48 46 44 43 42 42 41 38 36 36 38 39 37 37 38 39 37 35 35 36 39 40 40 39 36 34 32 31 30 28 25 23 24 25 27 29 32 34 36 37 38 38 37 36 34 31 29 28 28 29
53 53 53 51 51 48 44 42 41 38 38 39 41 41 40 41 43 44 43 41 40 41 44 45 43 41 38 36 34 32 32 31 28 26 25 25 26 27 30 32 35 37 39 40 40 38 36 33 29 27 27 29
52 55 55 55 56 54 49 45 43 43 43 44 46 45 44 44 46 48 49 48 47 48 49 48 45 40 37 35 33 31 30 31 30 28 26 24 24 24 25 26 29 31 34 36 38 39 40 39 36 32 28 28
46 52 54 56 59 58 55 52 51 52 51 51 52 52 50 49 50 51 53 54 53 54 53 49 43 39 35 32 30 30 28 28 29 27 25 23 23 23 23 23 23 24 26 27 29 31 33 35 36 37 35 32
42 46 47 51 57 60 59 59 59 59 58 59 60 58 57 56 55 55 56 57 58 59 58 52 44 39 36 32 30 31 29 27 26 26 25 24 23 23 23 23 23 23 23 23 24 24 24 26 27 30 32 35
41 43 44 45 50 55 59 62 64 65 64 65 65 64 64 63 63 62 60 61 62 64 63 58 50 43 40 39 38 38 35 32 30 28 28 27 27 27 27 26 26 26 26 25 25 24 24 24 24 24 25 28
43 43 44 43 44 47 52 58 62 65 68 70 70 69 69 70 70 69 68 67 67 68 68 65 58 51 49 50 49 48 45 41 39 36 34 34 35 35 34 33 34 36 34 32 32 31 30 29 28 27 27 26
45 45 46 46 45 46 46 51 55 58 64 68 71 72 73 75 76 75 74 72 71 72 72 70 66 61 61 61 61 61 55 49 48 44 42 42 43 43 42 42 43 45 44 42 41 40 39 38 36 34 32 30
46 48 49 49 49 49 49 50 51 52 56 60 63 68 72 75 78 79 78 76 74 74 74 74 72 71 71 72 73 73 68 61 57 52 50 49 50 49 50 50 50 52 53 50 48 47 45 44 43 43 41 38
47 48 49 51 53 54 54 54 53 53 54 56 57 60 63 67 72 75 76 76 75 75 76 75 75 75 76 77 79 81 78 73 67 63 63 60 58 56 55 56 56 57 59 58 57 55 52 50 48 47 47 46
51 50 50 51 53 56 58 58 57 55 55 55 55 56 57 59 63 67 70 71 72 74 74 74 74 75 76 77 81 83 81 78 74 72 72 68 64 61 57 58 58 60 62 64 65 65 62 60 56 52 50 51
56 55 53 52 52 54 58 61 62 61 59 57 55 54 53 55 57 60 64 66 69 71 71 71 72 73 74 76 80 82 80 77 73 70 68 63 59 56 53 54 58 61 65 67 68 68 68 67 66 62 56 52
63 61 59 57 56 55 56 59 61 63 64 63 61 57 54 54 55 57 59 62 65 67 69 69 71 72 72 74 78 79 75 69 62 57 55 53 51 52 53 53 56 59 61 63 64 63 64 67 72 72 65 58
67 69 68 67 65 62 59 58 60 61 63 64 65 62 58 56 55 56 57 61 63 65 67 67 68 69 69 71 73 71 62 55 51 49 53 57 59 62 62 58 57 57 57 58 58 58 58 61 68 72 70 66
63 68 72 76 78 76 70 65 62 62 62 63 64 64 63 60 59 58 59 61 63 64 66 65 65 64 64 62 61 56 52 51 53 56 62 66 66 67 66 63 61 61 61 60 58 56 57 57 61 66 70 71
62 64 67 71 78 83 83 78 73 69 66 66 66 66 66 64 63 62 63 63 64 65 65 63 59 55 52 51 50 50 52 54 57 60 64 66 65 65 66 67 65 64 65 63 60 60 61 60 59 61 67 71
60 63 64 66 70 76 82 85 85 81 77 76 76 75 74 73 71 69 68 67 67 65 62 58 52 46 45 44 44 45 46 48 50 55 61 65 67 68 70 68 63 61 64 64 63 64 63 62 62 61 62 66
54 56 59 63 67 71 75 79 84 85 84 84 84 83 82 82 81 78 77 75 73 69 64 57 49 45 41 38 35 34 35 37 39 44 52 62 69 69 69 65 57 56 64 66 64 64 65 68 69 63 60 63
53 52 52 54 60 67 72 75 79 81 83 85 86 86 86 86 84 83 83 83 80 77 72 66 58 49 39 33 31 30 30 31 31 35 44 57 68 69 67 65 58 57 63 66 64 65 70 72 69 64 64 65
48 50 50 49 50 56 65 72 75 77 80 81 82 83 84 85 85 84 86 86 83 81 77 72 67 55 39 33 32 31 31 30 30 33 39 52 63 65 65 67 61 56 59 63 61 63 67 66 65 68 70 69
36 40 43 45 45 46 52 61 69 73 76 78 78 77 77 78 78 78 78 78 78 77 73 66 61 55 44 35 32 32 33 32 32 33 38 50 63 67 69 70 63 54 55 58 57 58 61 60 63 71 72 72

ECMWFFLT2_700_rhum_009.txt.gz
RH
31 30 28 27 27 28 29 29 27 24 22 22 21 21 22 22 22 21 21 20 19 18 18 17 17 17 17 18 19 21 23 23 24 25 27 27 27 27 27 26 24 26 26 26 26 26 26 26 27 26 26 25
33 32 31 29 29 30 31 32 31 27 24 23 22 23 24 25 25 23 22 21 20 19 19 18 18 17 17 17 18 19 20 22 23 24 26 26 27 26 26 25 24 26 27 28 29 29 29 29 30 29 29 28
36 34 33 31 31 32 34 35 35 31 27 25 24 24 26 28 28 26 24 23 21 21 20 20 19 18 17 17 17 18 18 20 21 23 24 24 24 24 23 22 21 22 23 23 25 26 27 27 28 28 29 29
38 37 35 33 33 34 37 39 38 35 32 30 28 27 28 29 29 29 27 25 23 22 21 20 18 18 16 16 16 17 18 18 19 20 21 22 22 22 22 21 20 20 20 20 21 22 23 23 24 24 25 26
43 41 38 36 34 35 38 40 40 38 35 34 33 31 29 30 32 31 29 27 24 21 19 17 15 15 14 14 15 15 16 17 18 18 19 19 20 21 21 21 21 20 19 19 19 20 20 20 22 23 23 24
51 49 45 41 38 36 38 41 41 40 38 36 36 34 32 32 33 33 32 29 25 20 18 16 14 13 13 13 13 14 15 16 18 18 19 18 18 18 18 19 20 19 19 18 18 18 18 18 19 21 23 24
55 58 56 50 45 40 39 42 44 43 42 39 38 36 35 34 34 34 34 30 26 23 19 17 16 15 14 14 14 15 16 18 19 19 19 19 18 17 18 17 17 18 18 18 18 17 17 17 18 19 22 24
56 61 63 61 56 50 43 43 46 46 44 43 41 40 39 38 38 37 36 32 29 27 23 21 20 19 18 17 18 18 18 19 19 20 19 19 19 18 18 18 17 17 17 17 16 16 17 16 16 18 21 23
55 61 66 66 65 63 57 52 50 49 47 46 45 43 42 42 42 42 40 37 33 31 28 25 25 25 22 21 22 23 21 20 20 20 20 19 18 19 19 18 17 17 16 16 15 16 16 16 17 18 21 24
46 54 62 67 69 70 69 66 61 57 52 49 48 46 46 45 46 46 46 43 39 36 33 30 30 31 29 25 26 28 26 24 21 20 20 20 19 19 19 17 17 17 17 17 17 17 17 18 19 20 23 25
36 44 53 63 69 72 74 75 72 67 61 56 53 51 50 48 49 50 50 50 45 40 38 35 35 37 36 31 27 30 31 29 27 24 21 19 20 20 20 19 18 19 19 20 21 22 23 24 25 26 28 29
33 38 44 54 63 68 72 76 78 76 71 67 62 58 56 55 55 54 54 53 48 44 43 42 43 43 42 38 33 33 35 34 34 32 26 21 21 22 23 23 22 23 24 25 27 28 30 31 31 32 32 32
34 35 39 45 54 62 67 71 76 80 79 76 74 70 65 63 62 60 59 56 52 50 50 48 49 48 47 47 44 42 40 39 41 41 37 30 27 26 26 25 25 26 27 28 30 31 33 35 36 36 36 35
39 39 39 41 46 53 61 65 69 76 79 79 80 77 71 69 68 66 65 63 59 57 57 55 53 52 52 53 52 51 46 43 46 48 45 38 35 34 30 28 27 26 25 26 27 27 30 32 33 35 35 36
44 44 44 44 44 46 52 58 63 69 76 77 78 76 73 72 72 72 70 69 67 64 63 62 59 57 56 57 57 57 54 48 48 50 49 45 41 39 36 33 28 26 24 23 24 23 23 24 24 26 27 28
47 47 48 48 48 48 48 52 57 61 69 74 76 76 74 72 72 74 74 72 71 70 68 67 65 63 61 62 64 65 65 60 54 54 55 51 47 43 41 38 29 27 28 25 26 25 23 23 21 21 21 21
49 49 50 51 52 54 53 53 54 56 62 67 71 73 71 70 69 73 77 75 73 73 72 70 68 67 65 66 70 71 73 71 64 61 58 54 54 50 45 41 31 29 33 29 28 28 26 25 24 23 23 22
52 52 52 53 54 56 56 56 57 57 60 62 65 67 68 68 66 69 76 77 76 75 74 73 71 70 69 68 71 73 76 77 71 67 62 56 58 57 48 43 36 32 36 35 31 30 31 31 30 30 29 29
55 57 57 57 57 57 58 59 60 60 61 62 63 64 66 68 65 66 73 76 77 77 75 76 75 73 72 71 72 74 76 79 76 71 67 59 59 61 53 47 41 37 39 40 35 34 36 38 38 37 38 37
53 57 61 63 62 62 62 62 63 64 64 65 65 65 65 67 66 65 71 76 77 77 76 75 77 76 75 74 74 74 76 78 77 73 71 67 64 64 58 53 48 43 44 45 41 40 41 43 43 42 42 42
52 56 60 65 67 68 68 68 68 68 67 67 68 68 68 68 68 68 72 76 76 76 75 75 77 77 77 76 75 75 76 78 77 74 74 73 71 68 63 58 54 48 47 48 46 44 45 48 48 47 47 47
51 54 57 62 67 71 73 74 74 74 73 72 71 71 71 70 70 70 72 74 76 76 75 74 75 76 77 76 74 76 77 77 78 76 74 74 73 72 67 62 59 53 49 53 53 50 49 50 49 49 50 49
50 52 54 57 60 66 71 75 78 80 81 79 77 75 74 73 72 73 73 74 76 77 77 76 74 75 77 74 72 74 76 77 78 76 71 71 70 70 71 68 61 54 53 56 55 51 48 49 49 50 51 50
48 50 51 53 55 58 61 65 71 78 84 88 87 84 80 78 75 74 75 75 76 77 78 79 77 76 77 74 70 71 74 74 75 74 68 68 68 67 70 68 57 52 56 58 57 56 52 48 49 51 52 51
42 44 46 48 51 53 54 55 59 63 71 81 91 94 91 88 84 81 78 76 76 77 78 80 80 79 78 75 71 69 72 73 74 74 70 70 71 66 63 61 57 56 59 60 58 57 53 48 48 51 52 51
37 37 38 40 42 45 48 50 53 55 56 62 76 91 97 97 95 92 88 85 81 79 77 78 81 81 80 78 72 68 71 73 74 75 72 71 70 62 55 58 62 59 57 55 53 58 61 57 52 52 53 53
34 32 30 32 33 34 38 42 46 50 52 52 56 68 83 96 101 100 97 96 93 89 84 80 81 82 82 82 76 69 69 73 74 73 72 69 66 62 56 59 63 57 52 51 56 67 66 55 54 56 53 51
27 25 23 23 24 26 28 32 35 40 48 53 52 50 58 75 92 100 100 100 100 98 95 91 87 85 83 83 81 74 69 71 74 74 72 69 68 66 60 58 60 55 51 51 57 65 62 58 61 59 52 51
16 16 17 15 16 19 20 24 26 28 34 45 55 54 46 49 66 85 94 98 100 100 99 99 96 93 89 86 85 79 73 72 73 74 74 71 69 66 60 59 60 57 54 52 56 63 66 66 63 58 59 61
13 13 16 17 16 15 14 17 20 20 21 30 47 58 54 45 45 60 78 89 95 98 99 100 100 99 96 92 88 82 78 77 76 75 74 72 70 67 63 65 65 60 57 58 63 70 70 67 66 69 73 68
23 27 30 33 32 26 22 19 17 17 16 17 31 51 61 56 45 44 59 75 85 92 96 99 100 100 100 97 93 88 84 82 80 79 77 74 72 70 68 68 66 61 59 60 64 69 69 66 66 70 74 69

ECMWFFLT2_700_rhum_015.txt.gz
RH
29 28 27 27 29 33 37 40 43 44 43 40 36 33 34 37 37 32 29 28 26 24 23 20 19 20 21 22 24 24 25 24 24 24 23 22 21 18 15 14 16 16 14 11 10 10 10 10 10 9 9 9
34 31 30 30 30 34 38 42 45 47 46 44 40 38 36 35 35 33 31 32 30 26 24 21 20 19 19 20 21 22 23 24 23 23 23 23 23 22 19 15 16 17 16 12 10 10 10 10 10 9 9 9
35 33 30 31 32 35 38 40 44 48 49 47 43 42 41 38 36 34 33 34 33 29 26 23 21 20 19 19 20 20 20 21 20 19 20 21 22 23 23 21 18 19 18 14 10 9 9 10 9 9 9 10
36 37 32 34 35 34 36 40 44 47 49 49 46 44 43 41 39 36 35 37 37 33 30 26 23 21 21 20 20 21 21 20 19 18 17 17 18 20 23 24 22 22 22 18 13 9 10 11 11 10 10 10
35 37 36 42 45 45 42 40 44 47 49 50 48 46 45 43 42 41 39 39 40 39 35 30 27 24 23 23 21 22 22 22 22 20 19 18 18 17 18 20 21 22 23 23 21 16 15 16 15 14 13 14
30 30 30 36 47 64 68 58 52 48 50 52 51 48 46 45 44 44 43 41 42 43 41 36 31 28 26 26 24 23 23 22 23 23 22 21 20 19 18 16 16 18 20 22 26 26 23 22 21 21 20 20
33 32 31 29 35 56 75 79 72 61 54 53 53 52 49 47 46 45 46 45 45 45 46 44 38 34 31 29 27 26 26 25 24 24 23 21 20 18 16 14 14 15 16 18 24 29 29 27 26 25 26 26
38 38 38 36 33 38 52 70 79 78 72 62 55 55 53 50 48 47 48 48 48 48 49 50 46 41 37 33 31 29 27 28 28 26 23 21 19 16 14 13 12 13 14 16 20 25 28 27 26 26 26 27
44 43 44 44 43 40 41 49 61 72 79 74 65 59 56 55 53 50 49 50 50 50 51 53 52 49 45 40 36 34 31 30 30 29 26 22 20 17 14 14 12 12 12 13 16 20 23 24 24 25 24 24
48 49 50 51 52 53 51 50 51 57 65 72 76 72 63 58 56 55 53 52 52 52 53 54 54 54 53 49 45 43 38 34 34 32 29 26 22 19 16 15 14 13 12 12 14 17 20 20 20 22 22 22
48 51 54 56 58 60 63 62 61 60 61 65 73 78 77 71 64 59 57 56 56 56 57 56 55 55 56 56 53 51 47 42 40 39 36 30 25 21 19 18 17 16 15 13 14 17 20 20 19 19 20 20
46 49 52 56 59 64 68 70 70 68 67 67 69 73 79 86 84 73 65 61 58 58 60 59 56 55 57 58 58 59 57 51 48 46 42 36 29 25 23 22 20 20 19 16 15 17 19 20 20 20 19 19
42 46 51 54 57 61 66 71 76 76 74 73 72 73 76 87 95 90 82 74 67 64 63 62 58 54 56 59 61 63 63 59 55 52 49 42 35 30 27 26 24 24 23 20 18 18 18 19 20 20 20 19
37 42 47 53 56 60 62 66 72 78 81 81 79 77 79 87 94 95 93 89 88 87 80 75 70 59 53 57 61 64 66 65 61 58 56 51 44 38 32 29 30 31 30 27 25 22 19 18 19 19 19 20
33 36 40 45 51 56 60 64 67 72 77 82 85 84 83 85 91 96 98 97 98 99 96 94 90 78 64 57 57 60 65 69 68 65 63 60 56 51 43 38 36 36 37 34 31 29 25 20 18 19 19 20
33 36 39 41 43 46 50 54 60 66 70 74 80 85 86 85 85 89 94 97 99 98 99 100 99 96 86 73 65 62 63 69 71 71 70 69 66 62 55 47 40 38 39 38 36 34 33 29 22 20 21 21
37 38 40 42 43 43 44 45 47 52 59 65 70 76 83 86 87 86 85 88 95 99 100 99 99 100 98 93 85 76 73 75 74 73 75 75 72 69 63 55 47 43 41 41 41 38 37 37 32 26 24 24
39 40 41 42 44 45 45 45 45 45 46 50 57 64 72 80 86 89 87 85 87 93 98 100 100 98 97 99 98 93 87 84 82 79 78 78 77 75 71 66 61 56 51 49 48 44 40 38 39 35 28 27
35 36 38 38 39 40 41 42 43 45 45 45 46 50 58 67 76 83 88 90 88 86 89 93 95 97 97 96 97 99 93 88 89 89 87 84 80 80 78 76 73 68 66 64 58 52 47 40 39 39 34 30
32 32 32 33 34 35 35 35 36 38 41 43 44 45 48 53 61 71 79 87 91 91 89 87 86 89 95 96 94 96 96 93 91 90 92 90 84 82 81 80 79 76 75 76 72 66 58 48 39 37 37 35
28 26 26 26 27 29 30 30 30 31 33 35 37 40 44 46 49 55 63 72 81 90 95 94 90 85 87 94 95 95 97 100 95 88 91 93 90 87 83 82 83 81 80 80 82 79 70 59 47 38 37 39
21 19 18 16 16 19 21 23 23 24 25 26 28 31 34 40 44 47 50 55 61 71 84 93 98 95 91 92 96 98 99 101 99 94 94 95 94 93 89 86 84 84 84 85 86 85 80 74 65 52 43 43
26 20 13 9 9 10 11 13 14 15 16 16 18 22 25 30 35 41 44 46 47 52 62 75 88 96 99 97 97 100 100 100 100 99 98 95 93 93 90 87 88 88 90 92 90 88 87 85 82 75 59 45
30 20 10 7 7 8 9 10 10 10 10 11 10 12 18 22 25 30 36 40 42 43 45 54 68 81 92 98 99 99 99 100 100 99 99 97 94 92 88 87 89 90 93 95 94 93 92 91 88 86 77 58
24 13 8 7 8 10 11 9 9 9 9 10 9 7 9 14 18 20 24 30 36 38 38 40 49 61 74 86 96 100 98 98 100 100 99 99 98 94 89 87 86 88 91 95 98 97 93 92 90 88 86 71
13 9 12 22 35 45 46 33 19 15 14 13 13 10 7 8 11 13 14 20 27 31 34 35 36 42 52 64 78 92 98 99 99 100 100 100 100 98 93 88 86 88 90 91 94 95 95 94 91 88 86 76
19 27 39 62 82 91 91 72 44 27 23 26 27 24 19 12 11 13 12 14 20 24 27 31 32 33 37 43 53 68 85 96 99 99 99 100 100 100 98 95 93 92 91 91 90 93 98 96 92 92 86 72
54 60 67 82 94 97 96 85 64 46 39 44 48 45 40 31 22 21 19 16 16 19 21 23 27 29 30 32 36 45 60 78 92 98 98 99 100 100 100 99 98 96 94 96 94 92 94 94 96 93 78 64
85 81 82 88 90 92 96 90 72 58 55 58 60 57 56 53 42 32 30 29 24 20 19 19 20 23 25 26 28 31 40 53 70 86 94 97 99 100 100 99 99 98 99 100 98 95 93 92 92 82 70 69
98 90 89 90 87 87 93 88 71 62 63 61 60 61 61 63 59 45 37 40 41 33 25 21 19 19 21 24 25 25 28 35 48 66 81 89 95 100 100 99 101 100 99 100 99 99 98 94 90 83 80 85
94 91 90 87 85 88 94 90 75 70 71 64 61 66 68 69 69 62 49 43 47 49 41 32 26 22 20 22 26 28 27 28 33 46 65 80 86 95 100 100 100 101 99 100 100 99 99 97 96 93 91 90